Weather History for KANK - April, 2014

Change the Weather History Date:

Monday, April 21, 2014

  Actual Average (KGUC) Record (KGUC)
Temperature  
Mean Temperature 52 °F -  
Max Temperature 67 °F 52 °F 69 °F (2012)
Min Temperature 36 °F 24 °F 15 °F (2002)
Degree Days  
Heating Degree Days 14    
Growing Degree Days 2 (Base 50)    
Moisture  
Dew Point 32 °F    
Average Humidity 49    
Maximum Humidity 78    
Minimum Humidity 25    
Precipitation  
Precipitation 0.00 in - - ()
Sea Level Pressure  
Sea Level Pressure 30.35 in    
Wind  
Wind Speed 8 mph (SSE)    
Max Wind Speed 22 mph    
Max Gust Speed 36 mph    
Visibility 10 miles    
Events      
Averages and records for this station are not official NWS values.
T = Trace of Precipitation, MM = Missing Value Source: NWS Daily Summary

Daily Weather History Graph

Daily Weather History Graph

Search for Another Location

Airport or City:

Trip Planner

Search our weather history database for the weather conditions in past years. The results will help you decide how hot, cold, wet, or windy it might be!

Date:

Astronomy

Apr. 21, 2014 Rise Set
Actual Time 6:19 AM MDT 7:46 PM MDT
Civil Twilight 5:51 AM MDT 8:14 PM MDT
Nautical Twilight 5:18 AM MDT 8:48 PM MDT
Astronomical Twilight 4:43 AM MDT 9:23 PM MDT
Moon 1:17 AM MDT (4/21) 11:50 AM MDT (4/21)
Length of Visible Light 14h 22m
Length of Day
13h 26m
Waning Gibbous, 57% of the Moon is Illuminated
Apr 21
Waning Gibbous
Apr 22
Last Quarter
Apr 29
New
May 6
First Quarter
May 14
Full

Hourly Weather History & Observations

Time (MDT) Temp. Windchill Dew Point Humidity Pressure Visibility Wind Dir Wind Speed Gust Speed Precip Events Conditions
12:15 AM 44.8 °F 39.9 °F 32.9 °F 63% 30.35 in 10.0 mi WSW 9.2 mph - N/A   Overcast
12:35 AM 46.4 °F 43.5 °F 32.0 °F 57% 30.35 in 10.0 mi West 5.8 mph - N/A   Overcast
12:55 AM 44.6 °F 43.1 °F 32.4 °F 62% 30.35 in 10.0 mi West 3.5 mph - N/A   Mostly Cloudy
1:15 AM 44.2 °F 41.0 °F 32.2 °F 63% 30.36 in 10.0 mi West 5.8 mph - N/A   Mostly Cloudy
1:35 AM 43.7 °F 39.7 °F 32.0 °F 63% 30.36 in 10.0 mi West 6.9 mph - N/A   Overcast
1:55 AM 44.6 °F 40.2 °F 32.0 °F 61% 30.35 in 10.0 mi WNW 8.1 mph - N/A   Overcast
2:15 AM 43.9 °F 40.5 °F 32.2 °F 63% 30.36 in 10.0 mi West 5.8 mph - N/A   Mostly Cloudy
2:35 AM 43.2 °F 39.7 °F 32.2 °F 65% 30.36 in 10.0 mi West 5.8 mph - N/A   Clear
2:55 AM 41.9 °F 36.9 °F 31.6 °F 67% 30.37 in 10.0 mi WSW 8.1 mph - N/A   Clear
3:15 AM 41.9 °F 36.9 °F 32.0 °F 68% 30.37 in 10.0 mi WSW 8.1 mph - N/A   Scattered Clouds
3:35 AM 41.2 °F 36.0 °F 31.1 °F 67% 30.37 in 10.0 mi WSW 8.1 mph - N/A   Clear
3:55 AM 39.9 °F 37.8 °F 30.7 °F 70% 30.37 in 10.0 mi West 3.5 mph - N/A   Clear
4:15 AM 38.5 °F 32.7 °F 30.7 °F 74% 30.37 in 10.0 mi WSW 8.1 mph - N/A   Clear
4:35 AM 39.2 °F 34.2 °F 30.7 °F 72% 30.38 in 10.0 mi West 6.9 mph - N/A   Clear
4:55 AM 40.8 °F 34.5 °F 31.1 °F 68% 30.38 in 10.0 mi West 10.4 mph - N/A   Clear
5:15 AM 37.8 °F 31.8 °F 30.7 °F 76% 30.38 in 10.0 mi West 8.1 mph - N/A   Clear
5:35 AM 37.2 °F 31.2 °F 30.6 °F 77% 30.39 in 10.0 mi West 8.1 mph - N/A   Clear
5:55 AM 37.4 °F 32.8 °F 30.4 °F 76% 30.39 in 10.0 mi West 5.8 mph - N/A   Clear
6:15 AM 36.1 °F 32.3 °F 30.0 °F 78% 30.40 in 10.0 mi SW 4.6 mph - N/A   Clear
6:35 AM 36.7 °F 32.0 °F 29.8 °F 76% 30.41 in 10.0 mi WNW 5.8 mph - N/A   Clear
6:55 AM 38.7 °F 36.3 °F 31.1 °F 74% 30.42 in 10.0 mi West 3.5 mph - N/A   Clear
7:15 AM 40.3 °F 38.2 °F 31.5 °F 71% 30.42 in 10.0 mi West 3.5 mph - N/A   Clear
7:55 AM 43.0 °F - 31.6 °F 64% 30.42 in 10.0 mi Calm Calm - N/A   Clear
8:15 AM 44.6 °F 42.2 °F 32.0 °F 61% 30.42 in 10.0 mi NNE 4.6 mph - N/A   Clear
8:35 AM 45.0 °F 43.5 °F 32.0 °F 60% 30.42 in 10.0 mi NNW 3.5 mph - N/A   Clear
8:55 AM 47.3 °F - 32.0 °F 55% 30.42 in 10.0 mi NW 3.5 mph - N/A   Clear
9:15 AM 49.1 °F - 31.3 °F 50% 30.42 in 10.0 mi Calm Calm - N/A   Clear
9:35 AM 51.4 °F - 31.3 °F 46% 30.42 in 10.0 mi Calm Calm - N/A   Scattered Clouds
9:55 AM 53.2 °F - 30.9 °F 43% 30.41 in 10.0 mi Calm Calm - N/A   Clear
10:15 AM 55.2 °F - 30.7 °F 39% 30.40 in 10.0 mi Calm Calm - N/A   Clear
10:35 AM 57.4 °F - 30.2 °F 36% 30.40 in 10.0 mi East 3.5 mph - N/A   Clear
10:55 AM 59.0 °F - 27.3 °F 30% 30.39 in 10.0 mi SE 3.5 mph - N/A   Clear
11:15 AM 60.6 °F - 26.6 °F 27% 30.38 in 10.0 mi SSE 5.8 mph - N/A   Clear
11:35 AM 62.6 °F - 27.5 °F 26% 30.37 in 10.0 mi East 4.6 mph - N/A   Clear
11:55 AM 63.9 °F - 28.6 °F 26% 30.37 in 10.0 mi ESE 10.4 mph 18.4 mph N/A   Clear
12:15 PM 64.6 °F - 28.9 °F 26% 30.36 in 10.0 mi ESE 9.2 mph 17.3 mph N/A   Clear
12:35 PM 64.8 °F - 29.5 °F 27% 30.35 in 10.0 mi ESE 12.7 mph 18.4 mph N/A   Clear
12:55 PM 65.8 °F - 30.4 °F 27% 30.35 in 10.0 mi ESE 15.0 mph 19.6 mph N/A   Scattered Clouds
1:15 PM 66.0 °F - 30.7 °F 27% 30.34 in 10.0 mi ESE 15.0 mph 23.0 mph N/A   Mostly Cloudy
1:35 PM 63.3 °F - 31.5 °F 30% 30.34 in 10.0 mi ESE 12.7 mph 20.7 mph N/A   Scattered Clouds
1:55 PM 65.3 °F - 32.5 °F 29% 30.33 in 10.0 mi ESE 16.1 mph 25.3 mph N/A   Clear
2:15 PM 65.3 °F - 33.4 °F 31% 30.33 in 10.0 mi SE 13.8 mph 24.2 mph N/A   Clear
2:35 PM 65.7 °F - 33.4 °F 30% 30.32 in 10.0 mi ESE 12.7 mph 24.2 mph N/A   Clear
2:55 PM 66.0 °F - 32.7 °F 29% 30.31 in 10.0 mi ESE 16.1 mph 23.0 mph N/A   Clear
3:15 PM 66.2 °F - 32.9 °F 29% 30.30 in 10.0 mi ESE 16.1 mph 25.3 mph N/A   Clear
3:35 PM - - - N/A% 30.29 in 10.0 mi SE 16.1 mph 20.7 mph N/A   Clear
3:55 PM 66.2 °F - 32.5 °F 29% 30.29 in 10.0 mi ESE 16.1 mph 21.9 mph N/A   Clear
4:15 PM 66.2 °F - 31.8 °F 28% 30.29 in 10.0 mi ESE 16.1 mph 21.9 mph N/A   Clear
4:35 PM 64.4 °F - 30.6 °F 28% 30.29 in 10.0 mi SE 12.7 mph 21.9 mph N/A   Scattered Clouds
4:55 PM 67.3 °F - 31.6 °F 27% 30.28 in 10.0 mi ESE 11.5 mph 17.3 mph N/A   Scattered Clouds
5:15 PM 67.5 °F - 30.0 °F 25% 30.28 in 10.0 mi ESE 8.1 mph 17.3 mph N/A   Mostly Cloudy
5:35 PM 66.2 °F - 32.2 °F 28% 30.29 in 10.0 mi SE 11.5 mph 19.6 mph N/A   Mostly Cloudy
5:55 PM 65.1 °F - 32.9 °F 30% 30.29 in 10.0 mi ESE 17.3 mph 23.0 mph N/A   Scattered Clouds
6:15 PM 62.6 °F - 33.1 °F 33% 30.29 in 10.0 mi ESE 15.0 mph 21.9 mph N/A   Scattered Clouds
6:35 PM 60.4 °F - 33.1 °F 36% 30.29 in 10.0 mi ESE 17.3 mph 25.3 mph N/A   Clear
6:55 PM 59.0 °F - 32.9 °F 37% 30.29 in 10.0 mi ESE 18.4 mph 27.6 mph N/A   Clear
7:15 PM 57.4 °F - 33.1 °F 40% 30.30 in 10.0 mi ESE 21.9 mph 35.7 mph N/A   Clear
7:35 PM 56.3 °F - 33.1 °F 41% 30.30 in 10.0 mi ESE 20.7 mph 31.1 mph N/A   Clear
7:55 PM 54.9 °F - 33.1 °F 44% 30.30 in 10.0 mi SE 15.0 mph 31.1 mph N/A   Clear
8:15 PM 54.1 °F - 33.1 °F 45% 30.30 in 10.0 mi SE 20.7 mph 26.5 mph N/A   Clear
8:35 PM 54.0 °F - 33.1 °F 45% 30.33 in 10.0 mi East 5.8 mph 17.3 mph N/A   Clear
8:55 PM 52.9 °F - 33.1 °F 47% 30.33 in 10.0 mi SE 9.2 mph 19.6 mph N/A   Clear
9:15 PM 52.0 °F - 33.1 °F 49% 30.34 in 10.0 mi ESE 6.9 mph - N/A   Clear
9:35 PM 51.8 °F - 33.1 °F 49% 30.35 in 10.0 mi ESE 5.8 mph - N/A   Clear
9:55 PM 51.1 °F - 32.9 °F 50% 30.35 in 10.0 mi SE 11.5 mph 16.1 mph N/A   Clear
10:15 PM 51.4 °F - 32.9 °F 49% 30.36 in 10.0 mi SE 11.5 mph 16.1 mph N/A   Clear
10:35 PM 50.4 °F - 32.9 °F 51% 30.35 in 10.0 mi SSE 5.8 mph - N/A   Clear
10:55 PM 48.9 °F - 32.4 °F 53% 30.36 in 10.0 mi South 5.8 mph - N/A   Clear
11:15 PM 46.4 °F 41.9 °F 32.2 °F 58% 30.36 in 10.0 mi WSW 9.2 mph - N/A   Clear
11:35 PM 46.9 °F - 32.0 °F 56% 30.36 in 10.0 mi SSW 5.8 mph - N/A   Scattered Clouds
11:55 PM 45.5 °F 40.8 °F 32.0 °F 59% 30.35 in 10.0 mi SW 9.2 mph - N/A   Scattered Clouds